Theta_e
331 330 330 331 331 331 331 331 332 332 332 332 331 331 331 331 331 331 331 330 330 330 330 330 329 329 329 330 330 331 331 331 331 330 330 329 328 327 327 326 326 326 326 327 328 328 328 328 328 328 328 328 328 328 327 327 327 327 326 326 327 328 328
330 330 330 330 330 331 331 331 331 331 331 330 330 330 330 330 329 329 329 329 329 329 329 329 328 328 328 329 329 330 330 330 330 330 329 329 327 326 325 325 325 325 325 325 326 327 328 328 328 327 327 328 328 328 328 328 327 327 327 326 326 327 328
329 329 329 329 329 330 330 330 330 330 330 330 329 329 328 328 328 327 327 328 328 328 327 327 327 326 326 327 328 328 328 328 328 328 328 328 326 325 325 325 325 325 325 325 325 327 328 328 328 327 327 328 328 328 328 328 328 327 327 327 327 326 327
329 328 328 328 329 329 329 329 329 329 329 329 328 327 327 326 326 326 326 326 326 326 326 325 325 325 325 326 327 327 326 326 326 326 326 326 325 324 325 325 325 325 326 325 324 326 327 328 328 328 328 328 328 328 327 327 327 328 328 328 328 327 326
326 326 326 326 326 326 326 326 325 325 324 324 324 324 324 324 324 324 325 325 325 325 325 324 323 324 325 325 326 327 327 327 327 326 325 324 324 324 325 324 324 324 324 324 324 324 324 326 327 328 328 328 328 328 327 328 328 327 328 328 328 328 327
322 322 322 322 322 322 322 322 321 321 320 320 320 319 319 320 321 322 323 323 324 324 323 323 323 323 324 324 325 326 327 327 328 327 326 326 324 324 324 323 323 324 323 323 323 323 323 324 325 327 327 327 328 328 328 328 328 328 328 328 328 328 328
318 318 318 318 318 318 318 318 318 317 317 317 317 316 316 316 317 317 318 319 320 321 322 322 322 323 323 323 323 323 325 326 326 326 326 326 325 325 324 323 322 323 324 324 323 323 324 324 324 325 325 326 326 326 327 327 327 328 327 326 327 328 328
315 315 315 315 315 315 315 315 315 315 315 315 315 315 315 315 315 315 315 316 316 317 319 319 320 320 320 320 319 319 321 322 323 323 324 324 324 324 324 323 322 323 323 324 323 323 324 324 325 324 324 325 325 325 325 325 326 327 326 326 327 327 328
314 313 313 314 314 314 314 314 314 314 314 314 314 314 314 314 314 314 314 315 315 315 315 316 316 316 316 316 315 315 316 317 318 319 320 322 322 323 322 322 322 322 322 323 323 323 324 324 324 324 324 325 326 326 326 326 327 327 326 326 326 327 328
313 313 313 313 313 313 314 314 313 313 313 313 313 313 313 313 313 313 313 313 314 314 314 314 313 313 313 313 313 313 313 313 313 314 315 316 317 319 320 320 321 321 320 321 322 322 323 324 324 323 323 324 324 326 326 327 327 327 327 326 325 325 326
311 311 312 312 313 313 313 313 312 312 312 312 312 312 312 312 312 312 312 312 312 312 312 312 312 312 312 311 311 312 312 312 312 311 312 312 313 314 315 316 317 317 318 319 319 320 321 323 324 324 323 323 323 324 325 326 327 327 327 328 327 326 326
310 310 311 311 312 312 312 312 312 311 311 311 311 311 311 311 311 311 311 311 311 311 311 311 311 311 311 311 311 311 311 311 311 311 311 311 312 312 312 313 313 314 315 316 318 319 320 321 323 324 324 324 324 324 324 325 326 327 327 327 328 328 327
308 309 309 310 311 311 311 310 310 310 310 310 310 310 310 310 310 310 310 310 310 310 310 310 310 310 309 309 309 309 310 310 310 310 310 310 311 311 312 312 313 313 314 314 316 317 318 319 320 322 323 324 325 325 325 324 325 326 325 326 327 328 328
307 307 307 308 308 308 307 307 307 307 307 308 308 308 308 308 308 308 308 308 308 308 308 308 308 308 308 308 308 308 308 308 308 309 309 310 310 310 310 311 312 313 313 314 315 315 316 317 319 320 322 324 325 325 325 324 325 325 325 326 326 326 327
305 306 306 306 306 306 305 305 305 305 305 305 305 305 306 306 306 306 306 305 305 305 305 305 305 305 305 305 305 305 306 306 306 307 307 308 309 310 310 310 311 312 312 313 314 315 316 317 319 320 321 322 324 325 325 325 324 325 325 326 326 326 326
304 304 304 304 304 304 303 303 303 302 302 302 302 302 303 303 303 303 303 303 303 303 303 302 302 302 302 303 303 303 304 304 305 305 306 307 307 308 309 310 310 310 310 311 312 314 315 317 319 320 321 321 322 324 325 325 325 325 326 326 326 326 326
302 302 302 302 302 301 301 301 301 300 300 300 300 300 301 301 301 301 300 300 300 300 300 300 300 300 300 300 301 301 302 302 303 304 304 305 306 307 307 308 307 307 307 308 310 312 313 315 317 319 320 321 322 323 324 325 325 326 326 326 326 326 325
300 300 300 299 299 299 299 299 298 298 298 298 298 298 298 298 298 298 298 297 297 297 297 297 297 298 298 299 299 300 300 301 301 302 303 303 304 305 305 306 306 306 306 307 308 309 311 312 314 316 318 319 321 322 323 323 324 325 325 325 325 326 326
299 299 298 298 298 298 297 297 296 296 296 296 296 296 296 296 296 296 295 295 295 295 295 295 295 295 296 296 297 298 299 299 300 300 301 302 303 304 304 305 305 305 306 306 307 308 309 310 311 313 315 316 318 320 321 322 322 323 323 324 324 325 325
297 297 296 296 296 296 296 295 295 295 295 295 295 295 295 295 295 295 294 294 294 294 294 294 294 294 294 295 296 297 297 298 298 299 300 300 301 302 303 304 304 305 305 306 306 306 307 308 309 310 311 313 315 317 319 320 321 322 323 323 324 324 324
296 295 295 295 295 295 295 295 295 295 295 295 295 295 295 295 295 294 294 294 294 294 294 294 294 294 294 294 295 296 297 297 297 298 298 299 300 301 302 302 303 303 304 304 304 304 305 306 307 308 309 311 312 314 316 317 319 321 322 323 323 323 324
295 294 295 294 294 294 295 295 295 295 295 295 295 295 295 295 295 295 294 294 294 294 294 294 294 294 294 294 295 295 296 296 297 297 297 298 298 299 300 301 302 302 302 303 303 303 304 304 305 306 307 308 309 311 313 315 317 319 320 321 322 323 323
294 294 294 294 294 294 294 295 295 295 295 295 295 294 294 294 294 294 294 294 294 294 294 294 294 294 294 294 295 295 296 296 296 296 296 297 297 298 299 300 300 301 301 302 302 302 303 304 305 305 306 306 307 308 310 313 315 316 318 319 321 322 323
294 294 294 294 294 294 294 294 294 294 294 294 294 294 294 294 294 294 294 294 294 294 293 294 294 294 294 294 294 295 295 296 296 295 296 296 297 297 298 298 299 300 300 300 301 301 302 303 304 305 305 306 306 307 307 309 312 315 316 317 319 321 322
294 294 294 294 294 294 294 294 294 294 294 294 294 294 294 294 294 294 294 294 293 293 293 293 293 294 294 294 294 295 295 295 295 295 295 296 296 297 297 298 298 299 299 299 299 299 300 301 302 303 305 306 307 307 307 307 309 312 314 315 317 319 321
294 294 294 294 294 294 294 294 294 294 294 294 294 294 294 294 294 294 294 293 293 293 293 293 293 293 294 294 294 294 295 295 295 295 295 295 296 296 297 297 297 298 298 298 298 297 298 299 300 302 303 305 306 307 308 308 308 309 311 313 315 317 319
294 294 294 294 294 293 293 293 293 293 293 293 293 294 294 294 294 293 293 293 293 293 293 293 293 293 293 293 294 294 295 295 294 294 295 295 296 296 296 296 297 297 297 297 297 297 297 298 299 300 302 304 305 307 308 309 309 309 310 311 313 316 319
293 293 293 293 293 293 293 293 293 293 293 293 293 293 293 293 293 293 293 293 293 293 293 293 293 293 293 293 294 294 295 295 294 294 295 295 296 296 296 296 296 296 297 296 296 297 297 298 299 299 300 302 304 306 307 308 309 310 310 311 313 316 319
293 293 293 293 293 293 293 293 293 293 293 293 293 293 293 293 293 293 293 293 293 293 293 293 293 293 293 293 293 294 294 294 294 294 295 295 295 296 296 296 296 296 296 296 296 297 297 298 299 299 300 300 302 304 306 307 308 309 310 311 313 315 318
293 293 293 293 293 293 293 293 293 293 293 293 293 293 293 293 293 293 293 293 293 293 293 293 293 293 292 293 293 293 293 294 294 295 295 295 295 296 296 295 295 296 296 296 296 297 297 298 299 299 300 300 301 303 305 307 308 310 311 311 313 315 318
293 293 293 293 293 293 293 293 293 293 293 293 293 293 292 292 292 293 293 293 293 293 293 293 292 292 292 293 293 293 293 294 294 294 295 295 295 295 295 295 295 295 295 295 296 297 297 298 298 299 299 300 300 301 303 305 307 310 312 313 314 315 317
294 293 293 293 293 293 293 293 293 293 293 293 293 292 292 292 292 292 292 292 292 292 292 292 292 292 292 292 292 293 293 293 294 294 294 295 295 295 295 295 295 295 295 295 296 297 297 298 298 298 299 299 300 301 302 303 305 307 310 313 314 316 318
295 294 293 293 293 293 293 293 293 293 293 293 293 292 292 292 292 292 292 292 292 292 292 291 291 291 291 292 292 292 292 293 293 293 294 294 294 295 295 295 295 294 295 295 296 297 297 297 298 298 298 299 299 300 301 303 304 305 307 309 312 315 317
295 295 294 294 293 293 293 293 293 293 293 293 293 292 292 292 292 292 292 292 292 291 291 291 291 291 291 291 292 292 292 292 292 292 293 293 293 294 294 294 294 294 294 295 296 296 297 297 297 298 298 298 298 299 301 302 303 303 305 307 310 312 315
296 295 295 294 293 293 293 293 293 293 293 293 292 292 292 292 292 292 292 292 291 291 291 291 291 291 291 291 292 292 292 292 292 292 292 292 293 293 293 293 293 294 294 295 295 296 296 297 297 298 298 298 299 300 300 301 302 302 304 305 307 309 312
296 295 295 295 294 293 293 293 293 293 293 292 292 292 292 292 292 291 291 291 291 291 291 291 291 291 291 291 292 292 292 292 292 292 292 292 292 292 293 293 293 293 294 294 295 295 296 296 296 297 297 298 299 299 299 300 301 302 302 303 304 306 308
296 296 295 295 294 294 293 293 293 293 293 292 292 292 292 292 292 292 291 291 291 291 292 291 291 291 291 291 291 291 292 292 292 292 292 291 291 292 292 292 292 293 293 294 294 295 295 295 296 296 297 298 298 298 299 299 299 300 301 301 302 302 304
Wind_Speed
18 16 15 14 14 14 14 13 14 15 17 18 18 19 19 20 20 20 20 20 20 20 20 19 19 18 16 16 15 16 16 16 17 18 20 20 19 19 20 19 19 19 19 19 21 22 26 31 32 29 27 26 25 25 26 25 24 24 24 24 26 28 29
18 18 17 16 16 17 17 17 17 18 19 20 20 21 22 22 21 21 20 20 21 21 22 22 21 20 18 17 16 15 15 16 16 16 17 19 19 19 20 19 20 21 20 20 19 20 23 28 31 30 29 28 28 29 29 28 28 28 27 26 25 27 30
21 20 19 19 20 20 21 21 21 22 23 23 23 23 23 23 22 20 19 19 20 20 21 21 21 20 19 19 18 17 16 17 18 18 18 18 19 19 19 19 20 20 20 20 19 20 22 24 28 30 29 28 29 31 30 29 29 29 29 28 28 28 29
23 22 21 20 20 21 21 22 22 24 25 26 26 26 25 24 22 20 19 19 18 18 19 20 20 18 18 18 18 18 19 20 21 22 22 20 18 18 19 19 19 18 18 19 19 19 22 24 27 30 28 27 29 32 31 29 27 28 29 30 31 31 30
19 18 17 16 16 16 17 18 19 20 21 21 22 22 21 21 21 20 20 19 19 19 20 20 19 18 17 17 17 17 17 17 18 20 23 24 22 21 20 20 19 20 19 19 20 21 21 22 26 30 29 27 29 32 31 29 28 28 28 30 31 33 32
12 12 12 13 13 14 14 15 15 16 16 17 17 17 17 17 18 19 20 20 21 22 22 21 21 20 20 20 20 18 17 17 16 17 20 23 26 26 26 25 23 22 22 21 22 22 22 22 24 28 29 27 29 32 31 31 31 30 30 30 31 32 32
9 9 10 10 11 12 12 12 12 13 14 15 16 17 17 17 17 18 19 20 21 22 23 23 24 24 23 23 23 22 22 22 22 22 22 23 24 25 27 29 27 25 25 24 23 23 23 23 24 26 28 28 29 31 31 32 32 32 32 30 30 31 32
9 9 9 9 9 9 10 10 10 11 12 13 15 16 18 18 18 18 18 19 20 22 23 25 26 26 26 26 26 25 25 25 25 26 26 25 24 25 27 29 28 26 26 26 25 26 25 24 25 26 27 29 31 31 31 32 32 33 33 31 31 31 32
9 9 9 8 8 8 9 9 10 11 12 13 14 15 16 17 18 18 19 19 20 21 23 24 26 27 27 27 28 27 26 26 27 27 28 27 27 27 28 28 27 28 28 27 28 28 27 26 26 25 25 26 29 32 32 32 33 34 33 32 32 32 32
7 7 8 8 8 9 9 9 10 11 12 12 13 13 14 15 16 17 17 18 19 20 21 22 23 24 25 26 26 26 25 25 25 25 26 28 28 28 29 29 30 30 30 29 30 30 28 27 25 24 25 25 26 30 32 33 34 34 34 33 33 32 31
7 7 8 8 8 8 8 8 10 11 11 12 13 14 14 15 16 16 16 17 18 19 20 21 22 23 23 23 23 23 23 23 23 22 23 24 25 26 28 29 30 30 30 29 30 30 28 27 25 24 26 27 26 28 30 33 36 36 35 35 34 33 32
8 7 7 7 6 7 7 9 10 12 13 14 15 15 16 16 16 17 17 18 19 20 21 22 23 23 24 24 23 23 22 22 22 22 22 23 23 23 24 25 26 27 28 28 28 28 28 28 28 27 28 28 27 29 29 31 36 38 36 34 35 35 34
8 7 7 7 6 7 8 10 11 13 13 14 15 15 15 16 16 17 18 19 20 21 21 22 23 23 24 24 23 23 22 22 22 22 22 23 23 23 23 23 23 24 25 27 28 29 29 29 30 30 29 28 27 29 30 29 33 38 37 35 36 36 34
9 9 9 8 9 9 11 12 13 13 14 14 15 15 15 15 15 16 17 18 19 20 21 22 23 23 24 24 24 24 24 23 23 22 22 22 23 24 24 23 23 23 23 24 25 26 28 29 30 29 27 27 27 27 29 29 30 35 37 35 35 34 33
10 10 10 10 11 12 13 14 15 15 15 16 16 16 16 16 16 17 17 18 19 20 22 23 24 25 25 26 26 27 27 27 27 26 25 25 24 25 25 24 23 22 21 21 20 20 21 22 23 24 23 25 27 27 28 30 30 32 35 35 35 34 33
10 10 11 12 13 14 14 15 15 16 16 17 17 17 17 17 17 17 18 19 20 21 22 23 24 25 26 28 28 29 29 29 29 29 29 28 27 26 27 26 25 23 21 20 20 20 20 20 21 23 24 25 27 28 27 28 30 32 34 35 36 35 35
10 11 12 13 14 14 14 15 15 16 16 16 17 17 17 17 17 18 19 20 21 22 23 24 25 26 27 28 29 30 30 30 30 30 30 30 29 28 28 28 27 26 23 22 22 23 23 23 24 25 26 26 28 30 29 27 28 30 32 34 35 35 34
11 12 13 13 13 14 14 15 16 16 17 17 17 17 18 18 19 20 21 22 23 23 24 25 26 26 27 28 29 30 31 31 31 30 29 29 28 28 28 27 27 26 24 23 25 26 26 26 27 27 28 28 28 31 32 31 30 30 32 35 35 34 34
13 14 13 13 13 14 15 16 17 17 18 18 18 19 20 20 21 22 23 23 24 25 26 26 27 28 28 29 29 30 31 31 31 31 30 29 28 27 26 26 25 24 23 23 25 27 28 28 29 29 29 30 31 31 34 35 34 34 35 37 37 36 34
15 15 15 14 15 16 17 17 18 19 19 19 20 21 21 22 22 23 24 24 25 26 27 28 29 30 30 29 29 30 30 31 31 31 31 30 28 27 26 25 24 22 21 22 23 25 28 29 30 30 29 31 32 33 34 35 35 35 36 37 38 38 36
16 17 17 17 17 18 18 19 20 20 20 20 21 21 22 22 22 23 24 25 26 27 28 29 30 31 31 30 30 30 30 31 31 31 31 30 29 28 27 25 24 22 21 21 22 24 26 28 30 31 30 31 32 34 35 35 36 36 35 35 37 38 37
16 17 18 18 18 19 19 20 20 20 20 21 21 22 22 22 22 23 24 24 25 26 28 29 31 32 31 31 30 30 30 30 31 32 32 31 31 30 28 27 25 24 22 22 22 22 23 24 27 30 31 31 32 33 35 36 37 38 36 35 34 35 36
17 17 18 18 19 19 19 19 19 19 20 20 20 21 21 21 22 22 23 24 25 26 28 29 30 31 31 31 30 30 30 30 31 32 33 33 33 32 31 30 28 26 25 25 25 25 23 22 23 25 28 30 31 32 34 36 37 38 37 37 36 34 34
17 17 18 17 18 18 18 18 18 19 19 19 19 19 20 20 21 22 23 24 25 26 28 29 29 29 30 31 30 29 29 30 30 32 34 35 35 35 34 33 32 30 30 30 30 30 28 26 24 24 24 26 28 29 31 33 35 37 37 37 38 37 35
16 16 16 16 16 17 17 17 18 19 19 19 19 19 20 21 21 22 23 24 25 26 27 28 28 28 29 31 30 30 29 29 30 31 33 35 36 37 37 37 36 35 35 35 35 35 34 32 30 28 26 25 25 26 27 29 31 34 35 36 38 38 36
16 15 15 15 15 15 17 18 19 19 19 19 19 19 20 21 21 22 23 24 25 26 27 27 27 28 29 30 31 30 29 29 30 31 33 35 36 38 39 39 39 39 39 38 38 38 39 38 37 34 31 28 26 25 25 26 27 28 31 33 36 38 38
15 15 15 15 15 16 17 18 19 20 20 20 20 20 21 21 21 22 23 24 25 25 26 27 28 29 30 30 31 31 31 30 30 30 32 35 37 38 38 39 40 40 40 39 39 39 41 42 42 41 39 35 31 27 25 25 26 27 28 29 32 36 38
17 17 16 16 16 17 18 19 20 21 21 22 22 22 22 22 22 23 23 24 24 25 26 28 29 31 31 31 30 31 31 30 30 30 32 35 36 37 38 38 39 39 40 39 37 37 39 41 42 43 44 41 37 32 28 26 26 28 29 29 31 34 37
19 18 18 17 17 18 20 21 22 22 23 23 23 23 23 24 24 24 24 24 24 25 27 28 30 33 33 32 31 30 31 30 31 32 33 35 36 36 37 37 37 38 38 37 36 36 37 39 40 42 44 44 41 37 32 29 27 27 28 29 31 33 35
20 19 18 18 19 20 21 22 23 23 23 24 25 25 26 25 25 25 24 25 25 26 27 29 31 33 34 33 32 32 32 32 32 33 34 34 35 35 35 35 35 36 37 36 36 35 35 37 38 39 42 43 44 42 38 33 29 25 24 26 29 32 33
20 20 19 19 20 21 22 23 23 24 24 25 26 27 27 26 26 25 25 25 25 26 27 29 31 33 33 32 33 33 33 33 34 34 34 34 34 34 34 34 34 35 36 36 35 34 34 35 36 37 38 40 41 41 40 39 35 28 24 21 23 27 30
20 20 20 20 20 21 21 22 23 23 24 26 26 27 27 27 27 26 26 25 25 26 27 29 32 33 32 31 31 32 33 34 34 34 34 34 34 34 34 34 35 35 35 35 34 33 32 32 34 34 35 35 36 36 36 36 35 32 28 24 20 21 25
20 20 20 19 19 20 20 21 21 22 23 25 25 26 27 27 28 28 27 27 27 28 29 31 32 33 31 30 30 31 32 34 34 34 33 33 34 34 34 35 36 36 36 34 34 33 31 31 32 32 33 33 33 32 30 29 27 26 27 26 22 18 19
19 19 19 19 18 18 19 19 20 21 22 23 23 25 26 27 28 29 29 29 30 30 31 32 33 34 31 29 30 31 32 33 34 34 34 33 33 34 34 35 36 36 36 35 34 33 32 31 30 30 31 31 30 28 26 25 24 23 22 22 20 15 13
18 18 18 18 17 17 17 18 18 19 20 21 22 23 24 26 27 28 29 30 31 32 32 33 34 35 33 30 29 30 32 33 33 34 35 35 34 33 34 35 36 36 36 35 34 34 34 33 31 30 30 30 29 28 26 26 25 23 22 21 19 15 10
17 17 17 17 16 16 16 16 17 18 19 19 20 22 23 25 26 27 29 30 31 32 32 33 33 34 34 32 29 29 31 32 33 34 36 37 36 35 34 34 36 36 36 35 35 36 36 36 35 33 31 30 30 31 31 31 29 26 25 24 23 21 17
15 15 15 15 15 16 16 16 16 17 18 19 20 21 23 24 26 27 29 30 31 31 32 32 32 33 33 33 31 29 28 30 32 33 35 37 37 36 35 35 36 37 37 37 37 37 38 39 38 37 36 33 32 33 33 34 34 32 31 30 28 27 25
Wind_Direction
309 309 309 309 310 309 308 309 311 312 311 310 310 312 313 314 315 316 316 315 315 314 314 313 312 311 308 303 299 296 295 296 297 298 298 302 306 306 304 305 307 307 307 307 306 304 297 293 295 295 289 285 280 273 270 270 267 263 260 259 258 257 254
302 301 300 300 300 299 298 300 302 303 303 303 303 304 304 305 306 308 310 310 309 308 308 309 309 309 307 305 304 301 300 299 297 296 298 301 303 304 306 306 303 302 302 303 306 308 300 291 290 293 294 292 286 280 277 275 273 268 263 260 259 260 257
291 290 288 287 288 288 290 291 292 293 294 296 298 300 301 301 302 304 306 306 308 308 308 308 308 309 309 310 311 310 308 305 301 299 299 302 303 303 302 298 298 302 304 301 299 305 306 298 291 292 295 293 288 286 285 281 278 274 268 264 262 261 259
290 289 289 289 288 288 288 288 289 290 292 294 296 297 298 299 299 300 301 302 304 305 305 306 307 309 312 316 317 317 314 310 307 306 306 306 304 301 299 298 301 305 305 300 296 298 300 299 296 294 294 292 289 287 287 285 282 278 273 267 263 263 262
293 294 296 298 298 298 297 297 296 297 298 299 299 299 299 300 301 300 299 298 298 298 299 302 303 303 305 306 308 311 312 309 307 306 306 307 306 304 304 305 305 303 298 294 293 292 289 292 297 297 295 296 292 289 289 290 287 282 277 271 266 264 263
296 297 299 300 301 302 303 303 303 305 307 308 309 310 309 308 307 305 303 301 300 300 300 300 299 297 296 294 293 295 297 297 297 298 300 303 304 304 303 303 302 301 300 298 296 295 291 289 291 293 294 295 294 292 293 290 286 285 281 274 269 265 263
302 303 303 304 304 305 306 308 310 311 314 316 319 322 323 321 318 314 311 308 306 305 303 302 300 298 297 294 291 288 287 287 289 292 294 297 300 301 302 302 300 297 298 301 300 298 295 292 288 287 289 292 292 291 290 287 284 283 280 275 272 268 263
324 325 325 323 319 318 318 319 320 320 321 323 326 329 329 328 326 323 318 314 311 308 305 304 302 302 300 299 296 293 289 287 286 287 289 293 295 295 297 300 299 296 296 297 299 298 295 290 287 286 287 289 289 287 286 287 285 282 280 280 278 274 268
342 340 340 342 340 341 340 338 337 336 335 335 336 336 334 332 330 327 323 319 316 313 310 309 308 308 308 308 308 307 303 299 294 291 289 289 291 291 292 293 294 295 294 292 293 295 296 292 287 286 286 286 287 288 289 288 285 282 281 280 278 276 272
357 358 0 3 4 1 355 352 350 346 344 344 346 345 344 343 340 336 332 328 325 323 322 322 322 321 322 322 323 323 321 317 312 306 299 295 292 290 289 289 289 290 291 290 288 287 291 294 292 290 288 284 283 286 288 288 286 283 282 280 277 277 275
20 21 21 21 17 7 357 356 355 352 352 353 354 354 355 354 351 348 345 343 342 340 338 338 337 337 337 337 338 337 335 333 330 326 319 311 303 297 292 289 288 288 288 289 288 287 285 285 288 292 290 286 282 281 281 284 285 283 282 281 279 278 278
29 28 26 22 13 2 358 357 355 354 355 355 355 355 356 357 355 353 352 350 349 347 344 343 343 343 343 343 343 342 340 339 337 334 331 326 319 312 304 298 293 289 287 286 286 288 286 282 281 283 284 285 286 284 280 278 280 281 280 281 282 282 280
40 34 27 20 11 9 8 4 2 1 360 358 358 359 360 0 358 356 354 352 350 349 347 345 345 345 346 346 346 345 344 342 339 337 334 331 327 322 316 309 302 296 292 288 284 283 285 284 283 282 280 279 280 283 283 277 275 277 276 278 281 282 280
46 40 36 31 31 34 29 24 23 19 15 14 13 12 12 10 6 3 0 359 358 357 355 353 351 350 350 351 351 350 349 347 345 342 339 335 331 327 323 316 309 303 298 295 292 288 285 284 285 285 283 277 273 276 283 281 275 276 276 277 279 280 280
48 45 45 44 43 42 38 36 35 31 28 27 25 24 23 21 18 14 12 10 9 7 4 1 359 356 354 354 354 353 352 351 350 349 346 342 338 334 330 324 318 312 306 304 304 298 290 282 280 281 281 278 274 273 281 284 281 278 278 280 283 283 281
54 51 51 50 48 46 43 41 39 35 34 32 31 30 30 28 25 21 18 16 13 11 8 6 4 1 359 358 358 357 356 355 354 353 351 349 346 342 337 333 329 324 317 313 308 300 293 285 278 276 276 276 275 275 280 285 284 282 281 281 282 281 280
61 57 55 54 52 49 46 44 41 39 37 35 34 33 31 29 25 21 19 16 13 11 9 7 6 5 4 3 2 1 359 359 359 357 355 352 350 347 344 341 337 333 327 319 310 303 298 293 286 282 279 276 274 275 278 283 284 283 284 285 283 281 280
63 60 59 56 54 52 49 46 44 41 39 36 34 31 28 26 23 20 18 16 13 11 10 8 7 6 6 5 4 2 1 1 0 359 357 354 351 349 346 344 341 338 333 325 317 311 307 301 296 291 286 282 279 276 275 277 279 279 281 282 281 280 280
67 64 63 60 58 56 52 49 46 44 41 38 35 31 28 26 23 22 21 19 17 15 14 12 11 10 8 6 4 3 2 1 1 0 358 355 352 348 345 343 341 338 334 328 322 318 315 310 305 300 295 289 285 280 276 275 276 276 278 278 277 276 277
67 67 66 65 62 59 56 52 50 48 45 41 39 35 32 29 27 25 24 22 20 18 16 14 14 13 11 8 6 4 2 2 0 360 359 357 353 349 345 343 341 338 336 331 328 324 321 317 312 307 304 299 293 288 282 278 276 276 276 276 276 275 276
66 67 67 66 64 61 58 55 52 50 46 42 40 36 34 31 28 26 24 22 20 17 15 14 13 12 10 9 7 5 4 2 0 359 358 357 355 351 348 345 342 339 338 336 333 330 326 322 318 312 308 305 300 295 290 284 280 278 276 274 275 275 276
69 70 70 68 65 61 58 55 51 47 44 40 38 34 32 29 26 25 23 20 19 16 15 15 14 11 10 8 7 5 3 2 0 359 358 356 355 354 351 348 345 342 339 336 333 329 326 322 320 317 313 310 305 299 294 289 285 281 279 276 274 275 277
76 74 72 68 64 59 56 52 48 45 41 39 37 34 30 27 25 24 23 21 19 17 17 16 14 11 10 9 6 4 2 1 1 0 359 358 356 356 355 352 349 346 341 338 334 330 326 320 316 315 314 312 310 305 298 293 288 284 282 279 275 274 275
80 76 71 66 62 57 52 49 46 44 41 39 37 34 31 28 27 25 23 21 20 19 18 16 12 9 9 8 7 5 2 0 0 1 1 0 359 358 357 355 353 350 348 344 340 335 331 326 321 315 309 306 306 306 303 296 290 286 283 281 278 275 273
79 74 69 63 59 55 51 48 46 44 42 41 38 35 31 29 28 26 24 22 20 19 18 15 12 9 7 7 6 6 4 2 1 2 2 2 1 0 359 357 355 355 353 350 346 341 336 332 329 324 317 308 300 298 299 298 293 287 283 280 277 274 271
77 72 67 62 58 54 51 48 46 44 43 42 38 35 33 31 30 27 25 23 21 20 17 14 12 10 9 7 5 5 5 4 3 3 4 4 4 3 1 358 357 356 354 351 349 346 341 337 334 330 326 319 308 298 292 292 292 288 283 279 276 272 269
79 75 71 66 61 56 52 49 47 46 44 42 39 37 35 33 32 30 27 24 21 19 17 14 12 12 12 10 5 4 6 6 5 5 5 5 6 5 3 1 359 356 353 352 350 345 341 338 336 335 332 328 322 313 301 292 287 284 281 276 272 269 266
82 78 75 70 64 58 54 50 48 46 43 41 39 38 37 35 34 31 28 24 22 19 16 14 12 12 13 13 9 7 7 7 6 6 7 6 6 5 4 3 1 356 352 351 348 343 339 337 336 336 335 333 330 324 317 308 297 289 284 278 272 267 263
80 77 74 71 66 61 56 53 50 47 44 42 40 38 37 36 34 32 28 25 23 21 17 15 13 12 14 15 12 10 9 9 8 8 7 7 6 6 5 5 1 357 353 350 346 342 339 337 337 337 336 335 334 331 325 319 309 300 293 284 275 269 264
76 76 74 71 67 61 57 53 50 47 44 41 40 38 37 36 33 31 28 25 24 22 18 16 15 15 16 17 15 13 12 11 11 9 8 7 6 6 7 7 3 358 355 352 347 343 340 340 340 340 338 337 336 334 331 326 318 307 296 286 277 271 267
73 72 71 69 65 59 55 52 48 46 43 41 40 39 37 36 34 31 29 27 25 23 20 18 17 19 20 20 17 15 14 13 12 10 8 7 7 7 7 7 5 2 359 355 350 345 344 345 344 343 342 339 336 335 335 333 329 321 307 292 278 270 265
71 69 67 65 62 57 53 50 47 45 43 41 40 39 38 36 35 34 32 30 28 26 24 22 22 24 25 23 19 18 15 14 13 11 8 7 7 7 7 7 7 5 2 358 354 351 350 350 350 349 347 343 339 339 339 337 336 333 325 314 299 279 264
70 67 63 61 59 55 52 49 47 45 43 41 40 39 38 37 37 37 35 33 31 30 28 26 26 27 28 26 23 20 18 16 13 11 9 9 8 8 8 8 8 7 4 2 360 357 356 357 357 356 354 352 350 348 345 343 345 344 335 324 314 298 271
69 66 62 57 55 53 50 47 45 43 42 41 40 39 38 38 37 37 36 35 34 32 31 30 28 28 29 30 27 24 21 18 15 11 11 11 10 10 10 10 10 9 6 5 5 4 3 3 3 2 0 360 358 355 353 356 1 2 351 335 322 309 284
67 64 61 57 53 50 48 45 42 42 41 40 40 40 39 38 37 37 36 35 34 33 32 31 30 28 28 30 31 28 24 21 18 15 14 14 13 12 13 13 12 11 9 9 10 11 10 9 8 8 6 3 4 6 10 12 14 15 12 1 347 334 315
67 62 58 55 51 48 46 43 40 40 39 39 39 39 39 38 37 37 36 34 33 33 32 31 31 28 27 28 31 31 28 23 20 19 18 18 16 14 14 15 15 14 13 13 14 16 16 16 15 13 10 8 9 15 20 21 20 21 24 23 16 8 0
68 61 56 53 49 47 45 42 38 37 36 36 37 37 38 37 36 35 35 34 32 31 31 30 30 28 26 26 26 28 27 23 20 19 19 20 20 19 19 19 19 18 17 17 18 19 19 20 20 19 16 14 14 17 21 24 24 25 27 30 30 26 20